sat.trackr.live / text

‹ back to catalog

FLOCK 4H-19

NORAD 66722 · 2025-276BJ

PAYLOAD ACTIVE UNKNOWN

§ Identity

Operator
Country
US
Launch date
2025-11-28
Launch site
AFWTR
Launch vehicle
Mass (kg)
RCS (m²)

Purposes: earth_obs

External: N2YO · Heavens-Above · Gunter

§ Orbital elements

Epoch: 2026-09-19T10:19:55.277760Z

Period
94.62 min
Inclination
97.4098°
Eccentricity
0.0001137
Mean motion
15.21909379 rev/d
Perigee alt
499.3 km
Apogee alt
500.9 km
Semi-major
6,878.2 km
B*
1.8146e-4
RAAN
334.8566°
Arg perigee
31.1634°
Mean anomaly
328.9669°
Rev number
4,406

§ Raw data

FLOCK 4H-191 66722U 25276BJ  26262.43050090  .00004062  00000+0  18146-3 0  99982 66722  97.4098 334.8566 0001137  31.1634 328.9669 15.21909379 44060

JSON: /api/v1/satellites/66722 · /tle

For live sub-satellite position, see the globe view (requires WebGL).

§ Visibility from observer

Set your observer location to see the next 7 days of passes ≥ 10°. The values pass through the URL so the page stays shareable.

No JS? Fill the form by hand. The geolocation button needs JavaScript.